Time,TemperatureF,DewpointF,PressureIn,WindDirection,WindDirectionDegrees,WindSpeedMPH,WindSpeedGustMPH,Humidity,HourlyPrecipIn,Conditions,Clouds,dailyrainin,SolarRadiationWatts/m^2,SoftwareType,DateUTC
2014-02-16 00:10:00,30.0,24.0,29.84,NW,321,9.0,23.0,77,0.00,,,0.00,0,weatherlink.com 1.10,2014-02-16 05:10:00,
2014-02-16 00:25:00,29.5,23.0,29.84,NW,319,5.0,17.0,78,0.00,,,0.00,0,weatherlink.com 1.10,2014-02-16 05:25:00,
2014-02-16 00:40:00,29.3,24.0,29.86,WNW,297,8.0,15.0,79,0.00,,,0.00,0,weatherlink.com 1.10,2014-02-16 05:40:00,
2014-02-16 00:55:00,29.4,23.0,29.86,WNW,291,13.0,16.0,77,0.00,,,0.00,0,weatherlink.com 1.10,2014-02-16 05:55:00,
2014-02-16 01:10:00,29.0,22.0,29.86,NW,311,17.0,23.0,74,0.00,,,0.00,0,weatherlink.com 1.10,2014-02-16 06:10:00,
2014-02-16 01:25:00,28.5,21.0,29.86,NNW,328,13.0,23.0,74,0.00,,,0.00,0,weatherlink.com 1.10,2014-02-16 06:25:00,
2014-02-16 01:40:00,28.4,21.0,29.87,NW,308,13.0,22.0,73,0.00,,,0.00,0,weatherlink.com 1.10,2014-02-16 06:40:00,
2014-02-16 01:56:00,27.9,21.0,29.87,NW,318,9.0,20.0,75,0.00,,,0.00,0,weatherlink.com 1.10,2014-02-16 06:56:00,
2014-02-16 02:11:00,27.8,21.0,29.88,WNW,300,14.0,20.0,74,0.00,,,0.00,0,weatherlink.com 1.10,2014-02-16 07:11:00,
2014-02-16 02:26:00,27.5,20.0,29.89,WNW,293,15.0,19.0,74,0.00,,,0.00,0,weatherlink.com 1.10,2014-02-16 07:26:00,
2014-02-16 02:41:00,27.6,20.0,29.90,NW,324,12.0,28.0,72,0.00,,,0.00,0,weatherlink.com 1.10,2014-02-16 07:41:00,
2014-02-16 02:56:00,27.2,19.0,29.89,WNW,299,19.0,25.0,71,0.00,,,0.00,0,weatherlink.com 1.10,2014-02-16 07:56:00,
2014-02-16 03:11:00,26.9,19.0,29.90,WNW,289,15.0,21.0,71,0.00,,,0.00,0,weatherlink.com 1.10,2014-02-16 08:11:00,
2014-02-16 03:26:00,26.6,19.0,29.91,NW,310,7.0,15.0,73,0.00,,,0.00,0,weatherlink.com 1.10,2014-02-16 08:26:00,
2014-02-16 03:41:00,26.9,19.0,29.91,WNW,293,14.0,20.0,72,0.00,,,0.00,0,weatherlink.com 1.10,2014-02-16 08:41:00,
2014-02-16 03:56:00,26.9,19.0,29.92,WNW,297,10.0,20.0,71,0.00,,,0.00,0,weatherlink.com 1.10,2014-02-16 08:56:00,
2014-02-16 04:11:00,26.7,18.0,29.93,WNW,299,6.0,21.0,71,0.00,,,0.00,0,weatherlink.com 1.10,2014-02-16 09:11:00,
2014-02-16 04:26:00,26.4,19.0,29.93,WNW,292,13.0,20.0,72,0.00,,,0.00,0,weatherlink.com 1.10,2014-02-16 09:26:00,
2014-02-16 04:41:00,26.3,19.0,29.94,WNW,297,17.0,19.0,73,0.00,,,0.00,0,weatherlink.com 1.10,2014-02-16 09:41:00,
2014-02-16 04:56:00,26.2,19.0,29.95,WNW,299,12.0,21.0,73,0.00,,,0.00,0,weatherlink.com 1.10,2014-02-16 09:56:00,
2014-02-16 05:11:00,25.7,18.0,29.95,WNW,296,9.0,20.0,73,0.00,,,0.00,0,weatherlink.com 1.10,2014-02-16 10:11:00,
2014-02-16 05:41:00,25.2,17.0,29.96,WNW,299,9.0,22.0,72,0.00,,,0.00,0,weatherlink.com 1.10,2014-02-16 10:41:00,
2014-02-16 05:56:00,24.9,17.0,29.96,NW,308,5.0,20.0,72,0.00,,,0.00,0,weatherlink.com 1.10,2014-02-16 10:56:00,
2014-02-16 06:11:00,24.4,17.0,29.96,NW,305,11.0,16.0,73,0.00,,,0.00,0,weatherlink.com 1.10,2014-02-16 11:11:00,
2014-02-16 06:26:00,24.2,17.0,29.97,WNW,301,11.0,17.0,73,0.00,,,0.00,0,weatherlink.com 1.10,2014-02-16 11:26:00,
2014-02-16 06:41:00,24.2,17.0,29.98,NW,314,17.0,17.0,73,0.00,,,0.00,0,weatherlink.com 1.10,2014-02-16 11:41:00,
2014-02-16 06:56:00,24.1,16.0,29.98,NW,322,12.0,15.0,72,0.00,,,0.00,11,weatherlink.com 1.10,2014-02-16 11:56:00,
2014-02-16 07:11:00,24.2,16.0,29.98,NW,310,10.0,15.0,71,0.00,,,0.00,39,weatherlink.com 1.10,2014-02-16 12:11:00,
2014-02-16 07:26:00,24.1,16.0,29.99,NW,307,10.0,16.0,71,0.00,,,0.00,54,weatherlink.com 1.10,2014-02-16 12:26:00,
2014-02-16 07:42:00,23.9,16.0,29.99,NW,320,12.0,19.0,71,0.00,,,0.00,81,weatherlink.com 1.10,2014-02-16 12:42:00,
2014-02-16 07:57:00,24.2,16.0,30.01,WNW,292,8.0,14.0,71,0.00,,,0.00,125,weatherlink.com 1.10,2014-02-16 12:57:00,
2014-02-16 08:13:00,24.5,16.0,30.02,NW,304,9.0,17.0,70,0.00,,,0.00,214,weatherlink.com 1.10,2014-02-16 13:13:00,
2014-02-16 08:27:00,24.7,15.0,30.03,NW,316,7.0,18.0,68,0.00,,,0.00,206,weatherlink.com 1.10,2014-02-16 13:27:00,
2014-02-16 08:42:00,24.9,16.0,30.03,West,278,11.0,16.0,68,0.00,,,0.00,357,weatherlink.com 1.10,2014-02-16 13:42:00,
2014-02-16 08:57:00,25.3,16.0,30.03,WNW,291,10.0,16.0,68,0.00,,,0.00,366,weatherlink.com 1.10,2014-02-16 13:57:00,
2014-02-16 09:12:00,25.5,16.0,30.02,WNW,290,7.0,17.0,67,0.00,,,0.00,399,weatherlink.com 1.10,2014-02-16 14:12:00,
2014-02-16 09:27:00,26.0,16.0,30.03,West,276,10.0,14.0,67,0.00,,,0.00,432,weatherlink.com 1.10,2014-02-16 14:27:00,
2014-02-16 09:42:00,26.0,17.0,30.03,West,279,13.0,15.0,68,0.00,,,0.00,466,weatherlink.com 1.10,2014-02-16 14:42:00,
2014-02-16 09:57:00,26.4,17.0,30.04,West,265,12.0,15.0,67,0.00,,,0.00,497,weatherlink.com 1.10,2014-02-16 14:57:00,
2014-02-16 10:12:00,26.9,17.0,30.04,West,277,12.0,16.0,66,0.00,,,0.00,531,weatherlink.com 1.10,2014-02-16 15:12:00,
2014-02-16 10:27:00,27.1,17.0,30.04,WNW,284,11.0,15.0,66,0.00,,,0.00,561,weatherlink.com 1.10,2014-02-16 15:27:00,
2014-02-16 10:42:00,27.7,17.0,30.03,West,278,8.0,14.0,64,0.00,,,0.00,584,weatherlink.com 1.10,2014-02-16 15:42:00,
2014-02-16 10:57:00,28.1,17.0,30.03,West,270,6.0,14.0,63,0.00,,,0.00,610,weatherlink.com 1.10,2014-02-16 15:57:00,
2014-02-16 11:13:00,28.2,17.0,30.03,WNW,287,9.0,14.0,62,0.00,,,0.00,629,weatherlink.com 1.10,2014-02-16 16:13:00,
2014-02-16 11:28:00,29.1,17.0,30.02,West,275,6.0,13.0,61,0.00,,,0.00,643,weatherlink.com 1.10,2014-02-16 16:28:00,
2014-02-16 11:43:00,29.5,17.0,30.02,West,268,7.0,12.0,60,0.00,,,0.00,654,weatherlink.com 1.10,2014-02-16 16:43:00,
2014-02-16 11:58:00,30.1,17.0,30.01,WNW,287,10.0,14.0,58,0.00,,,0.00,664,weatherlink.com 1.10,2014-02-16 16:58:00,
2014-02-16 12:13:00,30.7,18.0,30.01,WNW,288,8.0,12.0,59,0.00,,,0.00,670,weatherlink.com 1.10,2014-02-16 17:13:00,
2014-02-16 12:28:00,31.3,18.0,30.01,WNW,301,5.0,13.0,57,0.00,,,0.00,670,weatherlink.com 1.10,2014-02-16 17:28:00,
2014-02-16 12:43:00,32.0,18.0,30.00,WNW,303,7.0,15.0,57,0.00,,,0.00,668,weatherlink.com 1.10,2014-02-16 17:43:00,
2014-02-16 12:58:00,32.4,18.0,30.00,WNW,295,4.0,16.0,55,0.00,,,0.00,659,weatherlink.com 1.10,2014-02-16 17:58:00,
2014-02-16 13:13:00,32.6,18.0,29.99,WNW,285,10.0,14.0,56,0.00,,,0.00,645,weatherlink.com 1.10,2014-02-16 18:13:00,
2014-02-16 13:28:00,33.2,18.0,29.99,WNW,301,6.0,16.0,54,0.00,,,0.00,631,weatherlink.com 1.10,2014-02-16 18:28:00,
2014-02-16 13:43:00,33.4,18.0,29.99,WNW,301,8.0,14.0,54,0.00,,,0.00,610,weatherlink.com 1.10,2014-02-16 18:43:00,
2014-02-16 13:58:00,33.4,17.0,29.99,West,281,11.0,16.0,52,0.00,,,0.00,506,weatherlink.com 1.10,2014-02-16 18:58:00,
2014-02-16 14:13:00,34.2,20.0,29.99,West,266,10.0,16.0,56,0.00,,,0.00,533,weatherlink.com 1.10,2014-02-16 19:13:00,
2014-02-16 14:28:00,33.2,18.0,29.99,WNW,298,9.0,15.0,53,0.00,,,0.00,274,weatherlink.com 1.10,2014-02-16 19:28:00,
2014-02-16 14:43:00,33.0,18.0,29.99,West,280,10.0,15.0,54,0.00,,,0.00,243,weatherlink.com 1.10,2014-02-16 19:43:00,
2014-02-16 14:58:00,32.7,18.0,29.99,WNW,303,11.0,17.0,56,0.00,,,0.00,192,weatherlink.com 1.10,2014-02-16 19:58:00,
2014-02-16 15:13:00,32.5,18.0,29.99,WNW,298,7.0,14.0,55,0.00,,,0.00,162,weatherlink.com 1.10,2014-02-16 20:13:00,
2014-02-16 15:28:00,31.8,17.0,29.98,WNW,283,10.0,16.0,54,0.00,,,0.00,146,weatherlink.com 1.10,2014-02-16 20:28:00,
2014-02-16 15:43:00,31.5,16.0,29.98,WNW,284,11.0,15.0,53,0.00,,,0.00,118,weatherlink.com 1.10,2014-02-16 20:43:00,
2014-02-16 15:58:00,31.5,17.0,29.98,WNW,302,7.0,13.0,55,0.00,,,0.00,113,weatherlink.com 1.10,2014-02-16 20:58:00,
2014-02-16 16:13:00,31.5,17.0,29.98,WNW,297,7.0,13.0,55,0.00,,,0.00,93,weatherlink.com 1.10,2014-02-16 21:13:00,
2014-02-16 16:28:00,31.2,17.0,29.99,WNW,296,10.0,14.0,57,0.00,,,0.00,63,weatherlink.com 1.10,2014-02-16 21:28:00,
2014-02-16 16:43:00,31.2,18.0,29.99,WNW,297,12.0,14.0,58,0.00,,,0.00,53,weatherlink.com 1.10,2014-02-16 21:43:00,
2014-02-16 16:58:00,30.7,17.0,30.00,WNW,295,13.0,17.0,58,0.00,,,0.00,32,weatherlink.com 1.10,2014-02-16 21:58:00,
2014-02-16 17:13:00,30.6,17.0,30.01,West,281,14.0,19.0,58,0.00,,,0.00,14,weatherlink.com 1.10,2014-02-16 22:13:00,
2014-02-16 17:28:00,30.3,17.0,30.02,WNW,285,19.0,19.0,57,0.00,,,0.00,0,weatherlink.com 1.10,2014-02-16 22:28:00,
2014-02-16 17:43:00,30.2,16.0,30.02,West,278,14.0,17.0,57,0.00,,,0.00,0,weatherlink.com 1.10,2014-02-16 22:43:00,
2014-02-16 17:58:00,30.1,16.0,30.03,West,273,13.0,15.0,57,0.00,,,0.00,0,weatherlink.com 1.10,2014-02-16 22:58:00,
2014-02-16 18:13:00,30.2,16.0,30.04,WNW,284,9.0,16.0,57,0.00,,,0.00,0,weatherlink.com 1.10,2014-02-16 23:13:00,
2014-02-16 18:28:00,30.1,17.0,30.04,WNW,282,14.0,17.0,58,0.00,,,0.00,0,weatherlink.com 1.10,2014-02-16 23:28:00,
2014-02-16 18:43:00,29.9,17.0,30.05,WNW,284,8.0,18.0,58,0.00,,,0.00,0,weatherlink.com 1.10,2014-02-16 23:43:00,
2014-02-16 18:58:00,29.9,17.0,30.05,WNW,301,6.0,15.0,58,0.00,,,0.00,0,weatherlink.com 1.10,2014-02-16 23:58:00,
2014-02-16 19:13:00,29.9,17.0,30.05,WNW,284,11.0,16.0,59,0.00,,,0.00,0,weatherlink.com 1.10,2014-02-17 00:13:00,
2014-02-16 19:28:00,29.7,18.0,30.06,NW,308,7.0,15.0,62,0.00,,,0.00,0,weatherlink.com 1.10,2014-02-17 00:28:00,
2014-02-16 19:43:00,29.4,18.0,30.07,NW,318,6.0,15.0,63,0.00,,,0.00,0,weatherlink.com 1.10,2014-02-17 00:43:00,
2014-02-16 19:58:00,29.4,19.0,30.07,WNW,302,7.0,12.0,64,0.00,,,0.00,0,weatherlink.com 1.10,2014-02-17 00:58:00,
2014-02-16 20:13:00,29.2,19.0,30.07,WNW,303,4.0,14.0,65,0.00,,,0.00,0,weatherlink.com 1.10,2014-02-17 01:13:00,
2014-02-16 20:28:00,29.4,19.0,30.08,WNW,289,11.0,17.0,64,0.00,,,0.00,0,weatherlink.com 1.10,2014-02-17 01:28:00,
2014-02-16 20:43:00,29.3,19.0,30.09,NW,305,9.0,13.0,66,0.00,,,0.00,0,weatherlink.com 1.10,2014-02-17 01:43:00,
2014-02-16 20:58:00,29.0,19.0,30.09,WNW,300,13.0,19.0,66,0.00,,,0.00,0,weatherlink.com 1.10,2014-02-17 01:58:00,
2014-02-16 21:13:00,28.8,19.0,30.09,NW,308,12.0,18.0,68,0.00,,,0.00,0,weatherlink.com 1.10,2014-02-17 02:13:00,
2014-02-16 21:28:00,28.7,19.0,30.09,WNW,297,8.0,19.0,68,0.00,,,0.00,0,weatherlink.com 1.10,2014-02-17 02:28:00,
2014-02-16 21:43:00,28.7,20.0,30.10,WNW,300,13.0,19.0,69,0.00,,,0.00,0,weatherlink.com 1.10,2014-02-17 02:43:00,
2014-02-16 21:58:00,28.5,20.0,30.10,WNW,292,10.0,18.0,69,0.00,,,0.00,0,weatherlink.com 1.10,2014-02-17 02:58:00,
2014-02-16 22:13:00,28.3,20.0,30.11,NW,311,13.0,17.0,71,0.00,,,0.00,0,weatherlink.com 1.10,2014-02-17 03:13:00,
2014-02-16 22:28:00,28.2,20.0,30.12,WNW,301,9.0,18.0,72,0.00,,,0.00,0,weatherlink.com 1.10,2014-02-17 03:28:00,
2014-02-16 22:44:00,27.9,20.0,30.12,NW,308,12.0,19.0,72,0.00,,,0.00,0,weatherlink.com 1.10,2014-02-17 03:44:00,
2014-02-16 22:59:00,27.7,20.0,30.13,WNW,300,12.0,19.0,73,0.00,,,0.00,0,weatherlink.com 1.10,2014-02-17 03:59:00,
2014-02-16 23:14:00,27.5,20.0,30.13,NW,308,7.0,14.0,74,0.00,,,0.00,0,weatherlink.com 1.10,2014-02-17 04:14:00,
2014-02-16 23:29:00,27.5,21.0,30.14,WNW,292,12.0,17.0,75,0.00,,,0.00,0,weatherlink.com 1.10,2014-02-17 04:29:00,
2014-02-16 23:45:00,27.2,20.0,30.15,NW,304,9.0,17.0,75,0.00,,,0.00,0,weatherlink.com 1.10,2014-02-17 04:45:00,
2014-02-16 23:59:00,27.0,20.0,30.15,WNW,288,13.0,17.0,76,0.00,,,0.00,0,weatherlink.com 1.10,2014-02-17 04:59:00,